Hourly Data Report for December 20, 2004

SHERBROOKE A
QUEBEC

45°26'00.000" N
71°41'00.000" W
241.40 m
7028124
71610
YSC

Download Data

Hourly Data (December 2004)
Hourly Data Report for December 20, 2004
TIME
LST
Temp Definition
°C
Dew Point Definition
°C
Rel Hum Definition
%
Precip. Amount Definition
mm

Wind Dir Definition
10's deg

Wind Spd Definition
km/h
Visibility Definition
km
Stn Press Definition
kPa
Hmdx Definition


Wind Chill Definition


Weather Definition


00:00 -16.7 -22.5 61   28 22 15.0 98.01   -27  
01:00 -17.1 -22.4 63   27 15 15.0 98.00   -26  
02:00 -17.8 -22.8 65   27 19 12.9 98.07   -27 Snow
03:00 -18.3 -23.4 64   27 15 11.3 98.10   -27 Snow
04:00 -19.1 -23.9 66   26 13 9.7 98.07   -27 Snow
05:00 -19.7 -24.3 67   27 19 1.8 98.12   -30 Snow
06:00 -20.5 -25.5 64   28 20 5.6 98.16   -31 Snow
07:00 -21.2 -26.1 65   29 15 1.4 98.25   -31 Snow
08:00 -22.0 -27.4 62   26 17 3.2 98.30   -32 Snow
09:00 -22.3 -27.4 63   27 15 1.6 98.30   -32 Snow
10:00 -22.7 -28.2 61   27 19 4.8 98.31   -34 Snow Showers
11:00 -23.2 -29.6 56   28 19 19.3 98.29   -34 Snow Showers
12:00 -23.4 -29.3 58   28 20 19.3 98.23   -35 Snow Showers
13:00 -23.7 -30.0 56   29 19 19.3 98.25   -35 Mostly Cloudy
14:00 -24.0 -30.3 56   28 19 24.1 98.25   -35 Mostly Cloudy
15:00 -24.6 -30.7 57   26 17 24.1 98.32   -35 Mostly Cloudy
16:00 -25.6 -31.7 57   27 9 19.3 98.44   -33 Mostly Cloudy
17:00 -26.8 -33.2 55   27 15 24.1 98.54   -37 Mainly Clear
18:00 -27.8 -33.4 59   27 7 15.0 98.65   -35  
19:00 -28.1 -33.4 60   23 7 15.0 98.74   -35  
20:00 -27.8 -32.9 62   22 7 15.0 98.80   -35  
21:00 -28.3 -33.0 64   21 4 12.9 98.81   -33  
22:00 -29.9 -34.6 64   14 6 8.0 98.76   -36  
23:00 -31.1 -35.4 66     0 4.8 98.79      

Notes on Data Quality.

Legend

  • E = Estimated
  • M = Missing
  • NA = Not Available*
  • [empty] = Indicates an unobserved value
Date modified: